This is the latest recevied weather packets stored in our database for station/object KA3BQE-13. If no packets are shown the sender has not sent any weather packets the latest 10 day(s).
| Time | Temp. | Humidity | Pressure | Rain* | Wind** | Luminosity | Snow |
|---|---|---|---|---|---|---|---|
| 1777911207 | 22.78° C | 54% | 1006 hPa | 0 mm | - | 762 W/m² | - |
| 1777910903 | 22.78° C | 53% | 1006 hPa | 0 mm | - | 749 W/m² | - |
| 1777910600 | 22.78° C | 52% | 1006 hPa | 0 mm | - | 737 W/m² | - |
| 1777910298 | 22.78° C | 53% | 1005.9 hPa | 0 mm | - | 726 W/m² | - |
| 1777909994 | 22.78° C | 53% | 1005.8 hPa | 0 mm | - | 717 W/m² | - |
| 1777909691 | 22.78° C | 53% | 1006 hPa | 0 mm | - | 710 W/m² | - |
| 1777909389 | 22.78° C | 55% | 1005.8 hPa | 0 mm | - | 702 W/m² | - |
| 1777909086 | 22.22° C | 56% | 1005.9 hPa | 0 mm | - | 687 W/m² | - |
| 1777908784 | 22.22° C | 57% | 1005.8 hPa | 0 mm | - | 669 W/m² | - |
| 1777908481 | 21.67° C | 57% | 1005.9 hPa | 0 mm | - | 656 W/m² | - |
| 1777908177 | 22.22° C | 57% | 1005.9 hPa | 0 mm | - | 642 W/m² | - |
| 1777907873 | 21.67° C | 57% | 1005.8 hPa | 0 mm | - | 635 W/m² | - |
| 1777907569 | 21.67° C | 58% | 1005.9 hPa | 0 mm | - | 621 W/m² | - |
| 1777907265 | 21.67° C | 60% | 1006.1 hPa | 0 mm | - | 609 W/m² | - |
| 1777906962 | 21.67° C | 60% | 1006.1 hPa | 0 mm | - | 595 W/m² | - |
| 1777906660 | 21.11° C | 61% | 1005.9 hPa | 0 mm | - | 580 W/m² | - |
| 1777906356 | 21.11° C | 64% | 1005.7 hPa | 0 mm | - | 566 W/m² | - |
| 1777906052 | 21.11° C | 64% | 1005.8 hPa | 0 mm | - | 557 W/m² | - |
| 1777905749 | 21.11° C | 63% | 1005.9 hPa | 0 mm | - | 541 W/m² | - |
| 1777905446 | 21.11° C | 61% | 1005.8 hPa | 0 mm | - | 522 W/m² | - |
| 1777905144 | 20.56° C | 64% | 1005.8 hPa | 0 mm | - | 506 W/m² | - |
| 1777904841 | 20.56° C | 65% | 1005.8 hPa | 0 mm | - | 488 W/m² | - |
| 1777904538 | 20° C | 65% | 1006.1 hPa | 0 mm | - | 476 W/m² | - |
| 1777904235 | 19.44° C | 68% | 1006.4 hPa | 0 mm | - | 465 W/m² | - |
| 1777903932 | 19.44° C | 67% | 1006.1 hPa | 0 mm | - | 448 W/m² | - |
* Rain latest hour (hover to see other rain measurements)
** Current wind speed in m/s (hover to see current wind gust speed)